Location: Ballingbuur
(53.0000°N, 5.7667°E)
Time: 06:29:36
(UTC+00:00)

YAOGAN 6 - Pass Details

Date: 29 November 2020
Orbit: 466 x 502 km, 97.0° (Epoch: 23 January)

Event Time Altitude Azimuth Distance (km) Brightness Sun altitude
Rises 05:21:36 0° 17° (NNE) 2,536 6.3 -17.6°
Reaches altitude 10° 05:23:44 10° 24° (NNE) 1,647 5.4 -17.3°
Maximum altitude 05:27:08 45° 99° (E) 655 3.7 -16.8°
Drops below altitude 10° 05:30:30 10° 173° (S) 1,623 5.5 -16.3°
Sets 05:32:35 0° 180° (S) 2,492 6.4 -16.0°
